| time (UTC) | temp F | wind direction | speed knots | gust knots | rain 1hr in | rain 24hr in | rain mn in | humidity % | barometer mb |
| 20260507105016 | 60 | 208 | 1.7 | 4.3 | 0.00 | 0.00 | 0.00 | 33 | 1018.3 |
| 20260507104017 | 60 | 317 | 0.9 | 3.5 | 0.00 | 0.00 | 0.00 | 30 | 1018.3 |
| 20260507103016 | 60 | 116 | 0.9 | 2.6 | 0.00 | 0.00 | 0.00 | 29 | 1018.2 |
| 20260507102036 | 60 | 116 | 0.0 | 3.5 | 0.00 | 0.00 | 0.00 | 30 | 1018.1 |
| 20260507101016 | 60 | 172 | 0.9 | 2.6 | 0.00 | 0.00 | 0.00 | 30 | 1018.0 |
| 20260507100016 | 59 | 182 | 1.7 | 4.3 | 0.00 | 0.00 | 0.00 | 31 | 1017.9 |
| 20260507095016 | 58 | 169 | 1.7 | 4.3 | 0.00 | 0.00 | 0.00 | 33 | 1017.9 |
| 20260507094016 | 57 | 275 | 0.9 | 2.6 | 0.00 | 0.00 | 0.00 | 27 | 1017.8 |
| 20260507093016 | 58 | 322 | 0.9 | 3.5 | 0.00 | 0.00 | 0.00 | 28 | 1017.8 |
| 20260507092016 | 59 | 221 | 1.7 | 4.3 | 0.00 | 0.00 | 0.00 | 27 | 1017.8 |
| 20260507091016 | 59 | 142 | 0.9 | 4.3 | 0.00 | 0.00 | 0.00 | 31 | 1017.8 |
| 20260507090016 | 58 | 151 | 0.9 | 4.3 | 0.00 | 0.00 | 0.00 | 35 | 1017.8 |
| 20260507085017 | 57 | 172 | 0.9 | 4.3 | 0.00 | 0.00 | 0.00 | 36 | 1017.7 |
| 20260507084016 | 57 | 173 | 1.7 | 3.5 | 0.00 | 0.00 | 0.00 | 36 | 1017.7 |
| 20260507083016 | 56 | 136 | 0.9 | 2.6 | 0.00 | 0.00 | 0.00 | 38 | 1017.8 |
| 20260507082016 | 56 | 30 | 0.0 | 1.7 | 0.00 | 0.00 | 0.00 | 36 | 1017.7 |
| 20260507081057 | 55 | 336 | 0.0 | 2.6 | 0.00 | 0.00 | 0.00 | 35 | 1017.6 |
| 20260507080016 | 53 | 322 | 0.0 | 2.6 | 0.00 | 0.00 | 0.00 | 39 | 1017.5 |
| 20260507075036 | 54 | 332 | 0.9 | 3.5 | 0.00 | 0.00 | 0.00 | 40 | 1017.3 |
| 20260507074016 | 54 | 323 | 0.9 | 3.5 | 0.00 | 0.00 | 0.00 | 42 | 1017.3 |
| 20260507073016 | 53 | 317 | 0.9 | 2.6 | 0.00 | 0.00 | 0.00 | 47 | 1017.3 |
| 20260507072016 | 53 | 300 | 0.9 | 2.6 | 0.00 | 0.00 | 0.00 | 45 | 1017.3 |
| 20260507071016 | 53 | 292 | 0.0 | 3.5 | 0.00 | 0.00 | 0.00 | 45 | 1017.2 |
| 20260507070016 | 53 | 319 | 0.0 | 1.7 | 0.00 | 0.00 | 0.00 | 44 | 1017.2 |
| 20260507065016 | 52 | 348 | 0.0 | 1.7 | 0.00 | 0.00 | 0.00 | 49 | 1017.1 |
| 20260507064016 | 51 | 320 | 0.9 | 2.6 | 0.00 | 0.00 | 0.00 | 46 | 1017.2 |
| 20260507063016 | 50 | 320 | 0.0 | 3.5 | 0.00 | 0.00 | 0.00 | 58 | 1017.0 |
| 20260507062016 | 50 | 320 | 0.0 | 1.7 | 0.00 | 0.00 | 0.00 | 62 | 1017.0 |
| 20260507061016 | 50 | 328 | 0.0 | 2.6 | 0.00 | 0.00 | 0.00 | 63 | 1016.9 |
| 20260507060016 | 47 | 0 | 0.0 | 0.0 | 0.00 | 0.00 | 0.00 | 75 | 1016.9 |
| 20260507055016 | 44 | 242 | 0.0 | 1.7 | 0.00 | 0.00 | 0.00 | 80 | 1016.8 |
| 20260507054016 | 41 | 340 | 0.0 | 0.9 | 0.00 | 0.00 | 0.00 | 86 | 1016.6 |
| 20260507053016 | 38 | 0 | 0.0 | 0.9 | 0.00 | 0.00 | 0.00 | 89 | 1016.5 |
| 20260507052016 | 36 | 0 | 0.0 | 0.0 | 0.00 | 0.00 | 0.00 | 90 | 1016.3 |
| 20260507051036 | 35 | 0 | 0.0 | 0.0 | 0.00 | 0.00 | 0.00 | 90 | 1016.2 |
| 20260507050056 | 34 | 0 | 0.0 | 0.0 | 0.00 | 0.00 | 0.00 | 91 | 1016.1 |
| 20260507045016 | 33 | 0 | 0.0 | 0.0 | 0.00 | 0.00 | 0.00 | 90 | 1016.2 |
| 20260507044016 | 33 | 0 | 0.0 | 0.0 | 0.00 | 0.00 | 0.00 | 90 | 1016.1 |
| 20260507043036 | 32 | 0 | 0.0 | 0.9 | 0.00 | 0.00 | 0.00 | 89 | 1016.0 |
| 20260507042016 | 32 | 0 | 0.0 | 0.9 | 0.00 | 0.00 | 0.00 | 89 | 1016.0 |
| 20260507041015 | 32 | 0 | 0.0 | 0.0 | 0.00 | 0.00 | 0.00 | 88 | 1015.9 |
| 20260507040016 | 32 | 0 | 0.0 | 0.0 | 0.00 | 0.00 | 0.00 | 88 | 1015.8 |
| 20260507035036 | 32 | 0 | 0.0 | 0.0 | 0.00 | 0.00 | 0.00 | 87 | 1015.7 |
| 20260507034016 | 32 | 0 | 0.0 | 0.0 | 0.00 | 0.00 | 0.00 | 87 | 1015.7 |
| 20260507033018 | 32 | 0 | 0.0 | 0.0 | 0.00 | 0.00 | 0.00 | 86 | 1015.6 |
| 20260507032018 | 32 | 0 | 0.0 | 0.0 | 0.00 | 0.00 | 0.00 | 86 | 1015.6 |
| 20260507031018 | 33 | 0 | 0.0 | 0.0 | 0.00 | 0.00 | 0.00 | 86 | 1015.6 |
| 20260507030018 | 33 | 0 | 0.0 | 0.0 | 0.00 | 0.00 | 0.00 | 86 | 1015.6 |
| 20260507025056 | 33 | 0 | 0.0 | 0.0 | 0.00 | 0.00 | 0.00 | 85 | 1015.6 |
| 20260507024017 | 34 | 0 | 0.0 | 0.0 | 0.00 | 0.00 | 0.00 | 85 | 1015.5 |
| 20260507023018 | 34 | 0 | 0.0 | 0.0 | 0.00 | 0.00 | 0.00 | 85 | 1015.5 |
| 20260507022038 | 34 | 0 | 0.0 | 0.0 | 0.00 | 0.00 | 0.00 | 85 | 1015.5 |
| 20260507021018 | 35 | 0 | 0.0 | 0.0 | 0.00 | 0.00 | 0.00 | 85 | 1015.4 |
| 20260507020037 | 35 | 0 | 0.0 | 0.0 | 0.00 | 0.00 | 0.00 | 85 | 1015.4 |
| 20260507015018 | 35 | 0 | 0.0 | 0.0 | 0.00 | 0.00 | 0.00 | 84 | 1015.4 |
| 20260507014038 | 35 | 0 | 0.0 | 0.0 | 0.00 | 0.00 | 0.00 | 84 | 1015.3 |
| 20260507013018 | 35 | 0 | 0.0 | 0.0 | 0.00 | 0.00 | 0.00 | 84 | 1015.3 |
| 20260507012018 | 35 | 0 | 0.0 | 0.0 | 0.00 | 0.00 | 0.00 | 84 | 1015.3 |
| 20260507011018 | 35 | 0 | 0.0 | 0.0 | 0.00 | 0.00 | 0.00 | 85 | 1015.2 |
| 20260507010018 | 35 | 0 | 0.0 | 0.0 | 0.00 | 0.00 | 0.00 | 85 | 1015.2 |
| 20260507005018 | 35 | 0 | 0.0 | 0.0 | 0.00 | 0.00 | 0.00 | 85 | 1015.2 |
| 20260507004016 | 34 | 0 | 0.0 | 0.0 | 0.00 | 0.00 | 0.00 | 85 | 1015.2 |
| 20260507003015 | 34 | 0 | 0.0 | 0.0 | 0.00 | 0.00 | 0.00 | 84 | 1015.2 |
| 20260507002015 | 34 | 0 | 0.0 | 1.7 | 0.00 | 0.00 | 0.00 | 84 | 1015.1 |
| 20260507001015 | 34 | 0 | 0.0 | 0.0 | 0.00 | 0.00 | 0.00 | 83 | 1015.1 |
| 20260507000015 | 34 | 0 | 0.0 | 0.0 | 0.00 | 0.00 | 0.00 | 81 | 1015.1 |
| 20260506235015 | 35 | 0 | 0.0 | 0.0 | 0.00 | 0.00 | 0.00 | 80 | 1015.0 |
| 20260506234015 | 35 | 0 | 0.0 | 0.0 | 0.00 | 0.00 | 0.00 | 80 | 1015.0 |
| 20260506233015 | 36 | 0 | 0.0 | 0.0 | 0.00 | 0.00 | 0.00 | 79 | 1015.1 |
| 20260506232015 | 36 | 0 | 0.0 | 0.0 | 0.00 | 0.00 | 0.00 | 79 | 1015.1 |
| 20260506231035 | 36 | 0 | 0.0 | 0.0 | 0.00 | 0.00 | 0.00 | 78 | 1015.2 |
| 20260506230015 | 37 | 0 | 0.0 | 0.0 | 0.00 | 0.00 | 0.00 | 76 | 1015.1 |
| 20260506225015 | 38 | 0 | 0.0 | 0.0 | 0.00 | 0.00 | 0.00 | 75 | 1015.0 |
| 20260506224015 | 38 | 0 | 0.0 | 0.0 | 0.00 | 0.00 | 0.00 | 74 | 1015.0 |
| 20260506223015 | 39 | 0 | 0.0 | 0.0 | 0.00 | 0.00 | 0.00 | 73 | 1015.0 |
| 20260506222015 | 39 | 0 | 0.0 | 0.0 | 0.00 | 0.00 | 0.00 | 72 | 1014.9 |
| 20260506221015 | 40 | 0 | 0.0 | 0.0 | 0.00 | 0.00 | 0.00 | 71 | 1014.9 |
| 20260506220015 | 41 | 0 | 0.0 | 0.0 | 0.00 | 0.00 | 0.00 | 71 | 1014.9 |
| 20260506215015 | 41 | 0 | 0.0 | 1.7 | 0.00 | 0.00 | 0.00 | 70 | 1014.8 |
| 20260506214015 | 41 | 324 | 0.0 | 1.7 | 0.00 | 0.00 | 0.00 | 68 | 1014.8 |
| 20260506213018 | 41 | 324 | 0.0 | 2.6 | 0.00 | 0.00 | 0.00 | 68 | 1014.7 |
| 20260506212037 | 42 | 0 | 0.0 | 0.0 | 0.00 | 0.00 | 0.00 | 67 | 1014.6 |
| 20260506211018 | 42 | 0 | 0.0 | 0.0 | 0.00 | 0.00 | 0.00 | 67 | 1014.5 |
| 20260506210018 | 42 | 0 | 0.0 | 1.7 | 0.00 | 0.00 | 0.00 | 66 | 1014.5 |
| 20260506205018 | 42 | 324 | 0.0 | 1.7 | 0.00 | 0.00 | 0.00 | 66 | 1014.4 |
| 20260506204018 | 43 | 0 | 0.0 | 0.9 | 0.00 | 0.00 | 0.00 | 65 | 1014.4 |
| 20260506203037 | 43 | 324 | 0.0 | 1.7 | 0.00 | 0.00 | 0.00 | 65 | 1014.4 |
| 20260506202017 | 43 | 324 | 0.0 | 1.7 | 0.00 | 0.00 | 0.00 | 64 | 1014.3 |
| 20260506201018 | 44 | 324 | 0.0 | 2.6 | 0.00 | 0.00 | 0.00 | 63 | 1014.3 |
| 20260506200017 | 44 | 324 | 0.0 | 1.7 | 0.00 | 0.00 | 0.00 | 62 | 1014.3 |
| 20260506195037 | 44 | 323 | 0.9 | 2.6 | 0.00 | 0.00 | 0.00 | 61 | 1014.2 |
| 20260506194037 | 45 | 324 | 0.9 | 2.6 | 0.00 | 0.00 | 0.00 | 60 | 1014.2 |
| 20260506193017 | 45 | 318 | 0.9 | 3.5 | 0.00 | 0.00 | 0.00 | 59 | 1014.1 |
| 20260506192017 | 46 | 322 | 0.9 | 2.6 | 0.00 | 0.00 | 0.00 | 58 | 1014.1 |
| 20260506191057 | 46 | 311 | 0.9 | 3.5 | 0.00 | 0.00 | 0.00 | 57 | 1014.0 |
| 20260506190018 | 47 | 324 | 1.7 | 3.5 | 0.00 | 0.00 | 0.00 | 56 | 1013.9 |
| 20260506185017 | 48 | 324 | 3.5 | 7.0 | 0.00 | 0.00 | 0.00 | 53 | 1013.9 |
| 20260506184017 | 49 | 322 | 1.7 | 5.2 | 0.00 | 0.00 | 0.00 | 51 | 1013.8 |
| 20260506183016 | 50 | 325 | 2.6 | 7.8 | 0.00 | 0.00 | 0.00 | 48 | 1013.7 |
| 20260506182017 | 50 | 324 | 2.6 | 7.0 | 0.00 | 0.00 | 0.00 | 46 | 1013.6 |
| 20260506181017 | 51 | 324 | 2.6 | 5.2 | 0.00 | 0.00 | 0.00 | 46 | 1013.5 |
| 20260506180017 | 51 | 326 | 2.6 | 7.8 | 0.00 | 0.00 | 0.00 | 46 | 1013.4 |
| 20260506175037 | 51 | 314 | 2.6 | 8.7 | 0.00 | 0.00 | 0.00 | 50 | 1013.4 |
| 20260506174017 | 52 | 324 | 3.5 | 7.8 | 0.00 | 0.00 | 0.00 | 50 | 1013.4 |
| 20260506173016 | 52 | 325 | 3.5 | 8.7 | 0.00 | 0.00 | 0.00 | 50 | 1013.3 |
| 20260506172017 | 52 | 329 | 2.6 | 8.7 | 0.00 | 0.00 | 0.00 | 52 | 1013.2 |
| 20260506171017 | 53 | 324 | 4.3 | 10.4 | 0.00 | 0.00 | 0.00 | 51 | 1013.2 |
| 20260506170017 | 53 | 327 | 3.5 | 10.4 | 0.00 | 0.00 | 0.00 | 51 | 1013.0 |
| 20260506165017 | 53 | 322 | 5.2 | 10.4 | 0.00 | 0.00 | 0.00 | 50 | 1013.0 |
| 20260506164017 | 54 | 328 | 3.5 | 9.6 | 0.00 | 0.00 | 0.00 | 50 | 1013.0 |
| 20260506163017 | 54 | 325 | 4.3 | 11.3 | 0.00 | 0.00 | 0.00 | 50 | 1013.0 |
| 20260506162017 | 55 | 330 | 4.3 | 9.6 | 0.00 | 0.00 | 0.00 | 49 | 1013.0 |
| 20260506161037 | 55 | 329 | 4.3 | 10.4 | 0.00 | 0.00 | 0.00 | 49 | 1012.9 |
| 20260506160017 | 55 | 325 | 5.2 | 9.6 | 0.00 | 0.00 | 0.00 | 49 | 1012.9 |
| 20260506155017 | 56 | 322 | 4.3 | 10.4 | 0.00 | 0.00 | 0.00 | 49 | 1012.8 |
| 20260506154016 | 56 | 325 | 5.2 | 11.3 | 0.00 | 0.00 | 0.00 | 48 | 1012.8 |
| 20260506153016 | 57 | 325 | 4.3 | 11.3 | 0.00 | 0.00 | 0.00 | 47 | 1012.8 |
| 20260506152017 | 58 | 324 | 4.3 | 10.4 | 0.00 | 0.00 | 0.00 | 46 | 1012.7 |
| 20260506151017 | 58 | 329 | 4.3 | 10.4 | 0.00 | 0.00 | 0.00 | 46 | 1012.7 |
| 20260506150037 | 59 | 330 | 1.7 | 8.7 | 0.00 | 0.00 | 0.00 | 45 | 1012.7 |
| 20260506145037 | 59 | 325 | 3.5 | 7.8 | 0.00 | 0.00 | 0.00 | 43 | 1012.7 |
| 20260506144036 | 59 | 327 | 3.5 | 8.7 | 0.00 | 0.00 | 0.00 | 43 | 1012.6 |
| 20260506143037 | 59 | 325 | 1.7 | 7.8 | 0.00 | 0.00 | 0.00 | 43 | 1012.7 |
| 20260506142016 | 58 | 318 | 2.6 | 7.8 | 0.00 | 0.00 | 0.00 | 45 | 1012.7 |
| 20260506141017 | 59 | 325 | 4.3 | 9.6 | 0.00 | 0.00 | 0.00 | 46 | 1012.6 |
| 20260506140017 | 58 | 327 | 0.9 | 7.0 | 0.00 | 0.00 | 0.00 | 46 | 1012.6 |
| 20260506135017 | 59 | 317 | 3.5 | 8.7 | 0.00 | 0.00 | 0.00 | 46 | 1012.7 |
| 20260506134017 | 59 | 328 | 2.6 | 8.7 | 0.00 | 0.00 | 0.00 | 46 | 1012.7 |
| 20260506133017 | 59 | 311 | 3.5 | 9.6 | 0.00 | 0.00 | 0.00 | 47 | 1012.7 |
| 20260506132016 | 59 | 319 | 3.5 | 9.6 | 0.00 | 0.00 | 0.00 | 46 | 1012.6 |
| 20260506131017 | 59 | 339 | 2.6 | 7.8 | 0.00 | 0.00 | 0.00 | 44 | 1012.6 |
| 20260506130016 | 58 | 327 | 1.7 | 8.7 | 0.00 | 0.00 | 0.00 | 45 | 1012.7 |
| 20260506125017 | 58 | 270 | 2.6 | 10.4 | 0.00 | 0.00 | 0.00 | 46 | 1012.7 |
| 20260506124017 | 58 | 331 | 1.7 | 9.6 | 0.00 | 0.00 | 0.00 | 43 | 1012.8 |
| 20260506123016 | 60 | 271 | 1.7 | 8.7 | 0.00 | 0.00 | 0.00 | 41 | 1012.8 |
| 20260506122016 | 59 | 311 | 1.7 | 6.1 | 0.00 | 0.00 | 0.00 | 44 | 1012.7 |
| 20260506121016 | 59 | 320 | 1.7 | 7.0 | 0.00 | 0.00 | 0.00 | 45 | 1012.8 |
| 20260506120016 | 59 | 325 | 2.6 | 8.7 | 0.00 | 0.00 | 0.00 | 42 | 1012.9 |
| 20260506115036 | 59 | 317 | 3.5 | 7.8 | 0.00 | 0.00 | 0.00 | 42 | 1012.9 |
| 20260506114016 | 59 | 290 | 2.6 | 6.1 | 0.00 | 0.00 | 0.00 | 40 | 1013.0 |
| 20260506113017 | 59 | 65 | 0.9 | 3.5 | 0.00 | 0.00 | 0.00 | 41 | 1013.0 |
| 20260506112016 | 58 | 112 | 0.9 | 7.0 | 0.00 | 0.00 | 0.00 | 41 | 1013.0 |
| 20260506111016 | 58 | 316 | 1.7 | 5.2 | 0.00 | 0.00 | 0.00 | 40 | 1013.0 |
| 20260506110016 | 57 | 47 | 0.9 | 3.5 | 0.00 | 0.00 | 0.00 | 42 | 1013.1 |